Overview Statistics Trail Chart Weather Telemetry Raw packets
 

This is the latest recevied weather packets stored in our database for station/object GW4003. If no packets are shown the sender has not sent any weather packets the latest 10 day(s).

<< 104 105 106 107 108 109 110 >>
Time Temp. Humidity Pressure Rain* Wind** Luminosity Snow
1787848054 25° C 52% 1025.4 hPa 0 mm - - -
1787847750 24.44° C 53% 1025.4 hPa 0 mm - - -
1787847447 25° C 53% 1025.3 hPa 0 mm - - -
1787847143 25° C 54% 1025.4 hPa 0 mm - - -
1787846839 24.44° C 53% 1025.3 hPa 0 mm - - -
1787846536 24.44° C 53% 1025.3 hPa 0 mm - - -
1787846232 23.89° C 54% 1025.2 hPa 0 mm - - -
1787845932 23.89° C 56% 1025.1 hPa 0 mm - - -
1787845627 24.44° C 54% 1025.2 hPa 0 mm - - -
1787845324 24.44° C 55% 1025.2 hPa 0 mm - - -
1787845020 23.89° C 57% 1025.2 hPa 0 mm - - -
1787844717 23.89° C 57% 1025.2 hPa 0 mm - - -
1787844413 23.89° C 58% 1025.3 hPa 0 mm - - -
1787844109 23.33° C 56% 1025.3 hPa 0 mm - - -
1787843805 23.33° C 57% 1025.3 hPa 0 mm - - -
1787843502 23.33° C 57% 1025.3 hPa 0 mm - - -
1787843198 23.33° C 59% 1025.3 hPa 0 mm - - -
1787842894 22.78° C 58% 1025.3 hPa 0 mm - - -
1787842590 22.22° C 60% 1025.3 hPa 0 mm - - -
1787842287 21.67° C 62% 1025.3 hPa 0 mm - - -
1787841983 21.67° C 63% 1025.3 hPa 0 mm - - -
1787841679 21.11° C 64% 1025.2 hPa 0 mm - - -
1787841375 21.11° C 67% 1025.1 hPa 0 mm - - -
1787841071 20.56° C 68% 1025.2 hPa 0 mm - - -
1787840767 20° C 70% 1025.3 hPa 0 mm - - -

* Rain latest hour (hover to see other rain measurements)
** Current wind speed in m/s (hover to see current wind gust speed)